Location: New Plymouth
(39.0670°S, 174.0830°E)
Time: 04:56:56
(UTC+13:00)

ISS - Pass Details

Date: 02 February 2019
Orbit: 403 x 411 km, 51.6° (Epoch: 20 February)

Event Time Altitude Azimuth Distance (km) Brightness Sun altitude
Exits shadow 06:03:43 - 257° (WSW) 2,147 -0.6 -6.3°
Reaches altitude 10° 06:05:53 10° 236° (SW) 1,497 -1.2 -5.9°
Maximum altitude 06:07:56 15° 198° (SSW) 1,228 -1.3 -5.6°
Drops below altitude 10° 06:09:58 10° 161° (SSE) 1,499 -0.2 -5.2°
Sets 06:12:45 0° 136° (SE) 2,363 1.7 -4.8°
